This demonstration page uses our WeatherBlox Daily Observations layout. Learn more.

Hourly Observations for January 4, 2018

Temp ( °F °C ) Dew Point ( °F °C ) Humidity (%) Winds ( mph kmh ) Pressure ( in mb ) Visibility ( mi km ) Precip ( " mm )
12:15 am 00:15 Clear 16 -9 13 -10.4 90 90 S 3 6 30.42 1030 10 16.0934 0 0
12:35 am 00:35 Clear 15 -9.7 12 -11 90 90 Calm 30.42 1030 10 16.0934 0 0
12:55 am 00:55 Clear 16 -9 13 -10.3 90 90 Calm 30.42 1030 10 16.0934 0 0
1:15 am 01:15 Clear 16 -9.1 13 -10.3 91 91 SW 3 6 30.42 1030 10 16.0934 0 0
1:35 am 01:35 Clear 14 -10.1 12 -11.3 91 91 Calm 30.42 1030 10 16.0934 0 0
1:55 am 01:55 Clear 12 -11.2 9 -12.7 89 89 Calm 30.48 1032 10 16.0934 0 0
2:15 am 02:15 Clear 14 -10.2 12 -11.1 93 93 SSW 3 6 30.42 1030 10 16.0934 0 0
2:35 am 02:35 Clear 17 -8.3 14 -9.8 89 89 SSW 6 9 30.42 1030 10 16.0934 0 0
2:55 am 02:55 Clear 15 -9.4 13 -10.6 91 91 Calm 30.42 1030 10 16.0934 0 0
3:15 am 03:15 Clear 17 -8.1 16 -9.1 93 93 S 3 6 30.42 1030 10 16.0934 0 0
3:35 am 03:35 Clear 15 -9.4 13 -10.8 90 90 SSE 5 7 30.42 1030 10 16.0934 0 0
3:55 am 03:55 Partly Cloudy 13 -10.5 11 -11.5 92 92 SE 6 9 30.45 1031 10 16.0934 0 0
4:15 am 04:15 Mostly Cloudy 12 -11.3 10 -12.4 92 92 SE 5 7 30.45 1031 10 16.0934 0 0
4:35 am 04:35 Cloudy 15 -9.3 15 -9.7 97 97 S 6 9 30.42 1030 10 16.0934 0 0
4:55 am 04:55 Cloudy 15 -9.2 14 -9.8 95 95 SSW 6 9 30.42 1030 10 16.0934 0 0
5:15 am 05:15 Cloudy 19 -7.5 17 -8.3 94 94 SSW 6 9 30.42 1030 10 16.0934 0 0
5:35 am 05:35 Mostly Cloudy 19 -7.4 17 -8.5 92 92 S 5 7 30.39 1029 10 16.0934 0 0
5:55 am 05:55 Partly Cloudy 17 -8.1 15 -9.4 90 90 S 7 11 30.42 1030 10 16.0934 0 0
6:15 am 06:15 Clear 18 -7.6 16 -9 90 90 SSW 7 11 30.42 1030 10 16.0934 0 0
6:35 am 06:35 Clear 18 -7.9 16 -9.1 91 91 SSW 8 13 30.39 1029 10 16.0934 0 0
6:55 am 06:55 Clear 17 -8.1 15 -9.3 91 91 S 7 11 30.39 1029 10 16.0934 0 0
7:15 am 07:15 Clear 17 -8.1 15 -9.4 90 90 S 8 13 30.39 1029 10 16.0934 0 0
7:35 am 07:35 Clear 16 -8.7 14 -9.8 92 92 SSW 7 11 30.42 1030 10 16.0934 0 0
7:55 am 07:55 Clear 16 -9.1 14 -10.1 93 93 S 7 11 30.39 1029 10 16.0934 0 0
8:15 am 08:15 Sunny 16 -8.9 14 -9.9 93 93 S 5 7 30.39 1029 10 16.0934 0 0
8:35 am 08:35 Sunny 16 -9.1 14 -10.2 92 92 S 6 9 30.39 1029 10 16.0934 0 0
8:55 am 08:55 Sunny 17 -8.6 14 -9.8 91 91 S 6 9 30.39 1029 10 16.0934 0 0
9:15 am 09:15 Sunny 18 -8 15 -9.3 90 90 S 7 11 30.39 1029 10 16.0934 0 0
9:35 am 09:35 Sunny 21 -6.3 18 -7.9 89 89 SSW 10 17 30.36 1028 10 16.0934 0 0
9:55 am 09:55 Sunny 22 -5.5 19 -7.5 86 86 SSW 9 15 30.36 1028 10 16.0934 0 0
10:15 am 10:15 Sunny 24 -4.3 20 -6.7 84 84 SSW 8 13 30.33 1027 10 16.0934 0 0
10:35 am 10:35 Sunny 26 -3.1 20 -6.4 78 78 SW 12 19 30.36 1028 10 16.0934 0 0
10:55 am 10:55 Sunny 28 -2.5 21 -6.3 75 75 SW 12 19 30.36 1028 10 16.0934 0 0
11:15 am 11:15 Sunny 29 -1.4 22 -5.8 72 72 SW 15 24 30.3 1026 10 16.0934 0 0
11:35 am 11:35 Sunny 31 -0.6 23 -5.2 71 71 SW 14 22 30.3 1026 10 16.0934 0 0
11:55 am 11:55 Sunny 31 -0.4 23 -5.1 71 71 WSW 10 17 30.3 1026 10 16.0934 0 0
12:15 pm 12:15 Sunny 32 0 24 -4.4 73 73 SW 9 15 30.27 1025 10 16.0934 0 0
12:35 pm 12:35 Sunny 33 0.8 25 -4.1 70 70 WSW 9 15 30.27 1025 10 16.0934 0 0
12:55 pm 12:55 Sunny 35 1.5 25 -3.9 68 68 SW 10 17 30.21 1023 10 16.0934 0 0
1:15 pm 13:15 Sunny 36 2.3 26 -3.2 67 67 WSW 9 15 30.21 1023 10 16.0934 0 0
1:35 pm 13:35 Sunny 37 2.5 25 -3.7 64 64 WSW 8 13 30.21 1023 10 16.0934 0 0
1:55 pm 13:55 Sunny 37 3 26 -3.6 62 62 WSW 8 13 30.21 1023 10 16.0934 0 0
2:15 pm 14:15 Sunny 38 3.1 26 -3.2 64 64 W 6 9 30.21 1023 10 16.0934 0 0
2:35 pm 14:35 Sunny 38 3.5 27 -3 63 63 W 7 11 30.21 1023 10 16.0934 0 0
2:55 pm 14:55 Sunny 38 3.6 27 -2.8 63 63 W 6 9 30.21 1023 10 16.0934 0 0
3:15 pm 15:15 Sunny 39 4 27 -2.8 62 62 W 7 11 30.18 1022 10 16.0934 0 0
3:35 pm 15:35 Sunny 39 4 28 -2.5 63 63 WNW 6 9 30.18 1022 10 16.0934 0 0
3:55 pm 15:55 Sunny 39 4 28 -2.4 63 63 W 5 7 30.18 1022 10 16.0934 0 0
4:15 pm 16:15 Sunny 39 3.7 27 -2.8 63 63 WNW 6 9 30.21 1023 10 16.0934 0 0
4:35 pm 16:35 Sunny 38 3.4 27 -2.6 65 65 W 5 7 30.21 1023 10 16.0934 0 0
4:55 pm 16:55 Sunny 37 2.8 28 -2.5 68 68 W 5 7 30.21 1023 10 16.0934 0 0
5:15 pm 17:15 Sunny 36 2.1 27 -2.7 71 71 W 5 7 30.21 1023 10 16.0934 0 0
5:35 pm 17:35 Clear 34 1 27 -3 75 75 W 5 7 30.21 1023 10 16.0934 0 0
5:55 pm 17:55 Clear 32 0 26 -3.2 79 79 W 6 9 30.24 1024 10 16.0934 0 0
6:15 pm 18:15 Clear 31 -0.5 26 -3.4 81 81 W 5 7 30.24 1024 10 16.0934 0 0
6:35 pm 18:35 Clear 32 0 26 -3.2 79 79 W 7 11 30.24 1024 10 16.0934 0 0
6:55 pm 18:55 Clear 31 -0.6 26 -3.5 81 81 W 5 7 30.24 1024 10 16.0934 0 0
7:15 pm 19:15 Clear 30 -1.1 26 -3.6 83 83 WNW 5 7 30.24 1024 10 16.0934 0 0
7:35 pm 19:35 Clear 28 -2.3 24 -4.5 85 85 WNW 3 6 30.3 1026 10 16.0934 0 0
7:55 pm 19:55 Clear 27 -2.6 24 -4.3 88 88 NW 6 9 30.3 1026 10 16.0934 0 0
8:15 pm 20:15 Clear 26 -3.2 23 -4.9 88 88 NW 6 9 30.3 1026 10 16.0934 0 0
8:35 pm 20:35 Clear 26 -3.6 24 -4.7 92 92 WNW 6 9 30.3 1026 10 16.0934 0 0
8:55 pm 20:55 Clear 25 -4 22 -5.3 91 91 WNW 6 9 30.3 1026 10 16.0934 0 0
9:15 pm 21:15 Clear 25 -3.8 23 -5.2 90 90 NW 6 9 30.3 1026 10 16.0934 0 0
9:35 pm 21:35 Clear 25 -3.8 23 -5.2 90 90 WNW 7 11 30.3 1026 10 16.0934 0 0
9:55 pm 21:55 Clear 25 -4 22 -5.5 89 89 WNW 7 11 30.3 1026 10 16.0934 0 0
10:15 pm 22:15 Clear 25 -4 22 -5.4 90 90 NW 7 11 30.3 1026 10 16.0934 0 0
10:35 pm 22:35 Clear 24 -4.6 22 -5.8 91 91 NW 5 7 30.3 1026 10 16.0934 0 0
10:55 pm 22:55 Clear 23 -5.1 21 -6.3 91 91 W 3 6 30.33 1027 10 16.0934 0 0
11:15 pm 23:15 Clear 23 -5 22 -5.5 96 96 WNW 6 9 30.3 1026 10 16.0934 0 0
11:35 pm 23:35 Clear 23 -4.9 22 -5.6 95 95 WNW 3 6 30.3 1026 10 16.0934 0 0
11:55 pm 23:55 Clear 22 -5.8 20 -6.5 95 95 NW 5 7 30.36 1028 10 16.0934 0 0

Powered by AerisWeather